This is the latest recevied weather packets stored in our database for station/object NO3U. If no packets are shown the sender has not sent any weather packets the latest 10 day(s).
| Time | Temp. | Humidity | Pressure | Rain* | Wind** | Luminosity | Snow |
|---|---|---|---|---|---|---|---|
| 1777586333 | 10° C | 67% | 1014.4 hPa | 0 mm | - | 36 W/m² | - |
| 1777586031 | 10° C | 67% | 1014.2 hPa | 0 mm | - | 41 W/m² | - |
| 1777585730 | 10° C | 67% | 1014.4 hPa | 0 mm | - | 37 W/m² | - |
| 1777585425 | 10° C | 68% | 1014.3 hPa | 0 mm | - | 73 W/m² | - |
| 1777585120 | 10° C | 67% | 1014.3 hPa | 0 mm | - | 83 W/m² | - |
| 1777584817 | 10° C | 68% | 1014.3 hPa | 0 mm | - | 87 W/m² | - |
| 1777584515 | 10.56° C | 70% | 1014.2 hPa | 0 mm | - | 88 W/m² | - |
| 1777584211 | 10.56° C | 67% | 1014.2 hPa | 0 mm | - | 100 W/m² | - |
| 1777583910 | 10.56° C | 67% | 1014.2 hPa | 0 mm | - | 85 W/m² | - |
| 1777583607 | 10.56° C | 67% | 1013.9 hPa | 0 mm | - | 97 W/m² | - |
| 1777583305 | 11.11° C | 67% | 1014 hPa | 0 mm | - | 128 W/m² | - |
| 1777583000 | 10.56° C | 65% | 1014 hPa | 0 mm | - | 164 W/m² | - |
| 1777582698 | 10.56° C | 66% | 1014.1 hPa | 0 mm | - | 201 W/m² | - |
| 1777582398 | 11.11° C | 68% | 1014.1 hPa | 0 mm | - | 313 W/m² | - |
| 1777582097 | 10.56° C | 66% | 1014.2 hPa | 0 mm | - | 221 W/m² | - |
| 1777581791 | 10.56° C | 68% | 1014.2 hPa | 0 mm | - | 198 W/m² | - |
| 1777581490 | 10.56° C | 71% | 1014.1 hPa | 0 mm | - | 204 W/m² | - |
| 1777581185 | 10.56° C | 69% | 1014.2 hPa | 0 mm | - | 255 W/m² | - |
| 1777580880 | 10° C | 71% | 1014.2 hPa | 0 mm | - | 269 W/m² | - |
| 1777580575 | 9.44° C | 72% | 1014.2 hPa | 0 mm | - | 174 W/m² | - |
| 1777580271 | 9.44° C | 73% | 1014.2 hPa | 0 mm | - | 72 W/m² | - |
| 1777579968 | 9.44° C | 73% | 1014.1 hPa | 0 mm | - | 37 W/m² | - |
| 1777579663 | 10° C | 71% | 1014.1 hPa | 0 mm | - | 62 W/m² | - |
| 1777579362 | 10° C | 71% | 1014.1 hPa | 0 mm | - | 152 W/m² | - |
| 1777579057 | 10° C | 72% | 1014.3 hPa | 0 mm | - | 205 W/m² | - |
* Rain latest hour (hover to see other rain measurements)
** Current wind speed in m/s (hover to see current wind gust speed)